Montana Department of Transportation

Main Content

Accidents and Incidents Report

Hourly Weather Roundup

ASUS45 KTFX 251910
RWRMT 
MONTANA REGIONAL WEATHER ROUNDUP
NATIONAL WEATHER SERVICE GREAT FALLS MT
1200 PM MST SUN FEB 25 2018

NOTE: "FAIR" INDICATES FEW OR NO CLOUDS BELOW 12000 FEET WITH NO
SIGNIFICANT WEATHER AND/OR OBSTRUCTIONS TO VISIBILITY.

MTZ001.007-043-252000-
WEST OF THE DIVIDE
  
CITY           SKY/WX    TMP DP  RH WIND       PRES   REMARKS
KALISPELL      CLOUDY    32  23  69 S22       29.62F WCI  19          
MISSOULA       CLOUDY    33  19  56 S17       29.75F WCI  22          
BUTTE          CLOUDY    27   9  46 SW13G21   29.75F WCI  16          
MULLAN PASS    HVY SNOW  21  17  84 S9G21     29.56F VSB.1/4 WCI  11  
ANACONDA         N/A     27  12  54 MISG      29.76F                  
DEER LODGE       N/A     28  16  59 MISG      29.74S                  
EUREKA           N/A     32  23  69 MISG      29.56                   
HAMILTON         N/A     32  18  55 SE20G25   29.80F WCI  20          
PLAINS           N/A     35  20  55 S15       29.71  WCI  25          
RONAN            N/A     32  21  64 S23G29    29.70F WCI  19          
--------------------------------

MTZ008-052.055-252000-
SOUTHWEST MONTANA
  
CITY           SKY/WX    TMP DP  RH WIND       PRES   REMARKS
BOZEMAN        FAIR      31   9  39 SW13G18   29.80S WCI  21          
DILLON         PTSUNNY   22  10  60 SW16      29.82F WCI   8          
ENNIS          CLOUDY    25  10  54 S23G32    29.87R WCI  10          
W YELLOWSTONE  HAZE      12   7  79 SW16G30   29.88R VSB 3/4 WCI  -4  
THREE FORKS      N/A     32  11  41 SW22      29.80S WCI  19          
TWIN BRIDGES     N/A     30   6  36 S13       29.84S WCI  20          
--------------------------------

MTZ009-010-012-014-046-048-049-054-252000-
EAST SLOPES AND CENTRAL MONTANA
  
CITY           SKY/WX    TMP DP  RH WIND       PRES   REMARKS
CUT BANK       FAIR      29  21  72 W26       29.48S WCI  14          
GREAT FALLS    FAIR      28  17  63 SW31G44   29.58F WCI  12          
MALMSTROM AFB  FAIR      28  20  72 SW36G45   29.62F WCI  11          
HELENA         CLOUDY    36  13  38 CALM      29.73F                  
AUGUSTA          N/A     27  19  71 SW24      29.58F WCI  12          
BOWMANS CRNR   FAIR      25  18  74 SW28      29.61F WCI   9          
CHOTEAU          N/A     32  16  51 SW18G28   29.59S WCI  20          
CONRAD           N/A     30  21  69 S32       29.58  WCI  14          
FAIRFIELD      FAIR      28  18  67 SW30G44   29.57F FOG     WCI  11  
POWER          FAIR      26  19  72 SW24      29.57R WCI  11          
RAYNESFORD     PTSUNNY   31  11  43 SW36G44   29.60F WCI  16          
ULM            LGT RAIN  29  19  66 SW26G33   29.62F WCI  15          
WHITE SULPHUR    N/A     23  10  58 SW26      29.70F WCI   6          
--------------------------------

MTZ011-013-016-021-045-047-050-051-252000-
NORTH CENTRAL MONTANA
  
CITY           SKY/WX    TMP DP  RH WIND       PRES   REMARKS
HAVRE          CLOUDY    28  23  81 SW23      29.55S WCI  14          
LEWISTOWN      CLOUDY    28  19  69 W21       29.60R WCI  15          
N BAR RANCH    FAIR      32  10  40 W14G24    29.60S WCI  22          
CHINOOK          N/A     32  21  64 SW18      29.54F WCI  20          
GEYSER         FAIR      30  17  59 W40       29.54F WCI  12          
STANFORD       FAIR      29  17  58 W26G41    29.57R WCI  15          
WINIFRED         N/A     29  20  68 W31G40    29.56S FOG     WCI  13  
--------------------------------

MTZ017.020-022.027-061-062-252000-
NORTHEAST MONTANA
  
CITY           SKY/WX    TMP DP  RH WIND       PRES   REMARKS
GLASGOW        CLOUDY    16   9  74 E6        29.59S WCI   7          
GLENDIVE       CLOUDY    24  15  68 SW12      29.66S WCI  13          
JORDAN           N/A     26  16  65 W13       29.63F WCI  15          
MALTA          SUNNY     23  16  74 W5        29.56F                  
SIDNEY         FAIR      24  13  62 SW16      29.65F WCI  11          
WOLF POINT     CLOUDY    20   9  62 W6        29.63F WCI  12PLENTYWOOD       N/A     23  10  58 CALM      29.58F                  
POPLAR           N/A     19   9  63 SW6       29.63F WCI  11          
SCOBEY           N/A     20   7  57 S6        29.56S WCI  12          
--------------------------------

MTZ028.42-056.058-252000-
SOUTHCENTRAL AND SOUTHEAST MONTANA
  
CITY           SKY/WX    TMP DP  RH WIND       PRES   REMARKS
BAKER          FAIR      25  17  72 SW21      29.67F WCI  11          
BILLINGS       PTSUNNY   29  13  51 W18       29.71S WCI  16          
LIVINGSTON     FAIR      30  12  47 SW44G58   29.72R WCI  12          
MILES CITY     CLOUDY    25  17  72 W8        29.69F WCI  16          
BIG TIMBER     SUNNY     28  16  59 W30G44    29.70R HAZE    WCI  13  
EKALAKA          N/A     24  12  60 SW16      29.69S WCI  11          
FORSYTH          N/A     34  10  37 MISG      29.69F                  
HARLOWTON      CLOUDY    26  17  69 W41G49    29.64F FOG     WCI   7  
LAUREL           N/A     32  12  43 SW9G16    29.74S WCI  24          
--------------------------------

REGIONAL REPORTS...DAKOTAS
  
CITY           SKY/WX    TMP DP  RH WIND       PRES   REMARKS
WILLISTON      FAIR      21  10  62 SW12      29.63F WCI   9          
MINOT          FAIR      27  17  66 SW20      29.63R WCI  13          
DICKINSON      FAIR      26  16  65 W17       29.63F WCI  13          
BEACH          FAIR      23  14  68 SW14G21   29.68S WCI  11          
CROSBY         FAIR      19  12  73 SW15      29.59F WCI   5          
TIOGA          FAIR      19  14  79 W15       29.61F WCI   5          
BISMARCK       FAIR      29  17  61 W13       29.72S WCI  19          
GRAND FORKS    PTSUNNY   28  21  75 W15       29.61R WCI  16          
FARGO          PTSUNNY   27  19  72 W17       29.66R WCI  14          
BUFFALO SD       N/A     26  16  65 W22       29.64F WCI  12          
RAPID CITY     FAIR      26  18  71 E10       29.78S WCI  16          
--------------------------------

REGIONAL REPORTS...WYOMING/IDAHO/WASHINGTON
  
CITY           SKY/WX    TMP DP  RH WIND       PRES   REMARKS
GILLETTE       FAIR      25   9  50 SW15      29.74S WCI  13          
SHERIDAN       FAIR      36  13  38 NW9       29.71F WCI  29          
BUFFALO WY     FAIR      29   9  43 S9        29.71S WCI  20          
CODY           FAIR      28   6  39 W21G41    29.75S WCI  15          
YELLOWSTONE LA   N/A     10   4  76 W10G23    29.86F WCI  -4          
IDAHO FALLS    CLOUDY    25  16  68 SW31G39   30.05F WCI   8          
SALMON         CLOUDY    36  12  37 S16G25    29.88F WCI  26          
BOISE          FLURRIES  29  25  85 E12       30.13F WCI  19          
SPOKANE        CLOUDY    36  29  75 SW30G43   29.64F WCI  23          
--------------------------------

REGIONAL REPORTS...ALBERTA
  
CITY           SKY/WX    TMP DP  RH WIND       PRES   REMARKS
CALGARY        PTSUNNY   36   7  30 W15G29    29.30R WCI  26          
CARDSTON         N/A     34  16  47 SW18G28     N/A  WCI  23          
EDMONTON       MOSUNNY   32  12  43 W13       29.25S WCI  22          
FORT MCMURRAY  LGT SNOW  19  14  79 E5        29.29                   
HIGH LEVEL     MOSUNNY   14  10  85 N8        29.39R WCI   3          
LETHBRIDGE     MOSUNNY   30  21  69 SW29G37   29.41S WCI  15          
LLOYDMINSTER   PTSUNNY   21   7  53 SW12      29.28F WCI   9          
MEDICINE HAT   PTSUNNY   30  19  64 S16G24    29.43S WCI  19          
MILK RIVER       N/A     30  21  69 W36G45      N/A  WCI  14          
PEACE RIVER    FLURRIES  21  14  73 N8        29.30R WCI  12          
PINCHER CREEK  PTSUNNY   28  19  69 W16G24    29.41F WCI  17          
WATERTON GATE    N/A     27  19  74 SW20G28     N/A  WCI  13          
--------------------------------

REGIONAL REPORTS...SASKATCHEWAN
  
CITY           SKY/WX    TMP DP  RH WIND       PRES   REMARKS
CORONACH         N/A     23  12  63 W9G20       N/A  WCI  13          
CYPRESS HILLS    N/A     21  10  63 SW14G21     N/A  WCI   8          
ESTEVAN        MOSUNNY   23  14  68 SW9       29.58F WCI  13          
MOOSE JAW        N/A     21   7  53 SW9         N/A  WCI  11          
PRINCE ALBERT  PTSUNNY   19  10  68 S12       29.46F WCI   7          
REGINA         PTSUNNY   19  12  73 S10       29.52S WCI   8          
ROCKGLEN         N/A     16   9  73 W20         N/A  WCI  -1          
SASKATOON      PTSUNNY   21  10  63 S16       29.42F WCI   7          
VAL MARIE        N/A     18  10  73 S8          N/A  WCI   7          
--------------------------------